Tracking 22836 objects as of 17-Apr-2021
HD Live streaming from Space Station
objects crossing your sky now

CRYOCUBE

Track CRYOCUBE now!
10-day predictions
CRYOCUBE is classified as:


NORAD ID: 45258
Int'l Code: 1998-067RB
Perigee: 404.3 km
Apogee: 411.7 km
Inclination: 51.6 °
Period: 92.6 minutes
Semi major axis: 6778 km
RCS: Unknown
Launch date: November 20, 1998
Source: United States (US)
Launch site: TYURATAM MISSILE AND SPACE COMPLEX (TTMTR)

Uplink (MHz):
Downlink (MHz): 437.350/2402.500
Beacon (MHz):
Mode: 9600bps GMSK
Call sign: WJ2XOY
Status: Inactive

aabbcc
Your satellite tracking list
Your tracking list is empty




NASA's NSSDC Master Catalog

Two Line Element Set (TLE):
1 45258U 98067RB  21107.74197696  .00013034  00000-0  19423-3 0  9997
2 45258  51.6396 272.4545 0005413  30.5620 329.5685 15.55447487 65755
Source of the keplerian elements: AFSPC